Current weather by "City, St" or "zip code"  
 

Current Conditions: Doylestown, Doylestown Airport, PA

Fair


75.0 F

Last Updated on Oct 21 2021, 12:54 pm EDT
Humidity: 40%
Wind Speed: S 6.9 mph
Barometer 29.98 in
Dewpoint: 48.9 F
Visibility: 10.00 mi
Precip: --
Heat Index: NA
Wind Chill: NA
Current conditions at:

Doylestown, Doylestown Airport, PA (KDYL)

Lat: 40.33016 Lon: 75.12286

Local Radar Image active severe weather and emergency alerts image image weather storm and storm spotter reports image weather observation monitoring service image
Local
Radar
Active
Alerts
Storm Reports Obs
Monitoring

Sign-up For Email & Text Message Weather Alert Notification Services



Advertise Here

Observation History for Doylestown, Doylestown Airport, PA


Time Wind
(mph)
Vis
(mi)
Weather Precip (in) Temperature (F) Relative
Humidity
Wind
Chill
(F)
Heat
Index
(F)
Pressure
Air Dwpt altimeter
(in)
sea level
(mb)
Rmks
12:54 pm EDT S 6.9 10.00 Fair -- 75.0 48.9 40% NA NA 29.98 1015.0
11:54 am EDT SW 8.1 10.00 Fair -- 72.0 48.0 43% NA NA 30.01 1015.9
10:54 am EDT SW 5.8 10.00 Fair -- 70.0 50.0 49% NA NA 30.03 1016.6
9:54 am EDT SW 5.8 10.00 Fair -- 64.0 50.0 60% NA NA 30.05 1017.3
8:54 am EDT S 4.6 10.00 Fair -- 57.0 48.9 74% 57 NA 30.05 1017.4
7:54 am EDT 3.5 10.00 A Few Clouds -- 54.0 46.9 77% NA NA 30.05 1017.3
6:54 am EDT S 4.6 10.00 Fair -- 54.0 46.9 77% 53 NA 30.05 1017.4
5:54 am EDT S 3.5 10.00 A Few Clouds -- 55.0 46.9 74% NA NA 30.05 1017.3
4:54 am EDT S 3.5 10.00 Fair -- 55.0 48.0 77% NA NA 30.04 1017.1
3:54 am EDT N 0.0 10.00 A Few Clouds -- 55.0 48.0 77% NA NA 30.04 1017.0
2:54 am EDT N 0.0 10.00 Partly Cloudy -- 55.0 48.0 77% NA NA 30.05 1017.4
1:54 am EDT S 4.6 10.00 Fair -- 56.0 48.0 75% 55 NA 30.05 1017.3
12:54 am EDT N 0.0 10.00 A Few Clouds -- 59.0 48.9 69% NA NA 30.04 1016.9
11:54 pm EDT S 3.5 10.00 Fair -- 59.0 48.9 69% NA NA 30.05 1017.3
10:54 pm EDT S 4.6 10.00 A Few Clouds -- 58.0 48.9 72% 58 NA 30.05 1017.4
9:54 pm EDT S 3.5 10.00 Partly Cloudy -- 61.0 48.9 65% NA NA 30.05 1017.5
8:54 pm EDT S 3.5 10.00 Fair -- 63.0 48.0 58% NA NA 30.05 1017.5
7:54 pm EDT SW 3.5 10.00 A Few Clouds -- 65.0 48.9 56% NA NA 30.05 1017.4
6:54 pm EDT SW 4.6 10.00 Fair -- 67.0 48.9 53% NA NA 30.04 1017.0
5:54 pm EDT W 4.6 10.00 Fair -- 72.0 48.0 43% NA NA 30.03 1016.6
4:54 pm EDT W 6.9 10.00 Fair -- 75.0 48.0 39% NA NA 30.02 1016.3
3:54 pm EDT NW 10.4 10.00 Fair -- 76.0 48.0 37% NA NA 30.02 1016.3
2:54 pm EDT W 8.1 G 19.6 10.00 Fair -- 76.0 48.9 39% NA NA 30.02 1016.4
1:54 pm EDT NW 9.2 10.00 Fair -- 76.0 48.9 39% NA NA 30.03 1016.7

Regional Weather Observation


Quakertown Airport, PA (KUKT)

Fair
73.0 F

Allentown, Lehigh Valley International Airport, PA (KABE)

Fair
73.0 F

Allentown Queen City Municipal Airport, PA (KXLL)

Fair
72.0 F

Doylestown, Doylestown Airport, PA (KDYL)

Fair
75.0 F

Pottstown, Pottstown Limerick Airport, PA (KPTW)

Fair with Haze
71.0 F

Philadelphia - Wings Field Airport, PA (KLOM)

Fair
74.0 F

Advertise Here


Advertise Here